Terug naar catalogus

FLOCK 4H 5

ActiefWetenschapSSO
NORAD 66708·PAYLOAD·🇹🇼 Taiwan

Gelanceerd Nov 28, 2025 vanaf Vandenberg Space Force Base

Loading…

Volgende Passages (komende 24 uur)

TLE

VersSource: CelesTrak SupGP

Epoch: Sep 14, 2026, 18:45 UTC

1 66708C 25276AU  26257.78146991 -.00003495  00000+0 -15576-3 0  2572
2 66708  97.4099 330.0959 0001840  75.5657 327.6979 15.21506381    10

Volg FLOCK 4H 5 in realtime met AllMySat

Download on the App Store